Weather History for Milton, FL

Change the Weather History Date:

Monday, November 7, 2011

  Actual Average (KNSE) Record (KNSE)
Temperature  
Mean Temperature 64 °F -  
Max Temperature 78 °F 69 °F 84 °F (2005)
Min Temperature 50 °F 51 °F 37 °F (2007)
Degree Days  
Heating Degree Days 1    
Growing Degree Days 14 (Base 50)    
Moisture  
Dew Point 55 °F    
Average Humidity 71    
Maximum Humidity 96    
Minimum Humidity 45    
Precipitation  
Precipitation 0.00 in - - ()
Sea Level Pressure  
Sea Level Pressure 30.18 in    
Wind  
Wind Speed 8 mph (East)    
Max Wind Speed 12 mph    
Max Gust Speed -    
Visibility 10 miles    
Events      
Averages and records for this station are not official NWS values.
T = Trace of Precipitation, MM = Missing Value Source: NWS Daily Summary

Daily Weather History Graph

Daily Weather History Graph

Search for Another Location

Airport:

Trip Planner

Search our weather history database for the weather conditions in past years. The results will help you decide how hot, cold, wet, or windy it might be!

Date:

Astronomy

Nov. 07, 2011 Rise Set
Actual Time 6:07 AM CST 4:55 PM CST
Civil Twilight 5:42 AM CST 5:20 PM CST
Nautical Twilight 5:13 AM CST 5:49 PM CST
Astronomical Twilight 4:45 AM CST 6:17 PM CST
Moon 2:59 PM CST (11/7) 3:18 AM CST (11/7)
Length of Visible Light 11h 38m
Length of Day
10h 48m
Waxing Gibbous, 92% of the Moon is Illuminated
Nov 7
Waxing Gibbous
Nov 10
Full
Nov 18
Last Quarter
Nov 25
New
Dec 2
First Quarter

Hourly Weather History & Observations

Time (CST) Temp. Dew Point Humidity Pressure Visibility Wind Dir Wind Speed Gust Speed Precip Events Conditions
12:56 AM 57.9 °F 54.0 °F 87% 30.22 in 10.0 mi East 8.1 mph - N/A   Clear
1:56 AM 55.9 °F 53.1 °F 90% 30.22 in 10.0 mi ENE 8.1 mph - N/A   Clear
2:56 AM 55.0 °F 52.0 °F 89% 30.21 in 10.0 mi ENE 6.9 mph - N/A   Clear
3:56 AM 54.0 °F 51.1 °F 90% 30.21 in 10.0 mi ENE 5.8 mph - N/A   Clear
5:56 AM 50.0 °F 48.9 °F 96% 30.22 in 10.0 mi NNE 4.6 mph - N/A   Clear
6:56 AM 57.0 °F 53.1 °F 87% 30.24 in 10.0 mi NE 6.9 mph - N/A   Mostly Cloudy
7:56 AM 60.1 °F 53.1 °F 78% 30.25 in 10.0 mi ENE 10.4 mph - N/A   Partly Cloudy
8:56 AM 66.0 °F 55.0 °F 68% 30.25 in 10.0 mi ESE 10.4 mph - N/A   Mostly Cloudy
9:56 AM 71.1 °F 55.9 °F 59% 30.24 in 10.0 mi East 11.5 mph - N/A   Partly Cloudy
10:56 AM 73.9 °F 55.9 °F 53% 30.22 in 10.0 mi East 10.4 mph - N/A   Mostly Cloudy
11:56 AM 75.9 °F 55.0 °F 48% 30.18 in 10.0 mi East 9.2 mph - N/A   Partly Cloudy
12:56 PM 78.1 °F 55.0 °F 45% 30.15 in 10.0 mi East 8.1 mph - N/A   Scattered Clouds
1:56 PM 77.0 °F 55.9 °F 48% 30.13 in 10.0 mi ESE 10.4 mph - N/A   Scattered Clouds
2:56 PM 75.0 °F 57.0 °F 53% 30.13 in 10.0 mi ESE 9.2 mph - N/A   Mostly Cloudy
3:56 PM 73.0 °F 57.9 °F 59% 30.13 in 10.0 mi East 6.9 mph - N/A   Mostly Cloudy
4:56 PM 72.0 °F 57.9 °F 61% 30.13 in 10.0 mi East 6.9 mph - N/A   Mostly Cloudy
5:56 PM 70.0 °F 57.9 °F 65% 30.15 in 10.0 mi East 4.6 mph - N/A   Overcast
6:56 PM 68.0 °F 57.9 °F 70% 30.15 in 10.0 mi ENE 6.9 mph - N/A   Mostly Cloudy
7:56 PM 66.9 °F 57.9 °F 73% 30.16 in 10.0 mi East 4.6 mph - N/A   Partly Cloudy
8:56 PM 66.0 °F 57.0 °F 73% 30.16 in 10.0 mi East 4.6 mph - N/A   Scattered Clouds
9:56 PM 64.9 °F 57.0 °F 75% 30.15 in 10.0 mi East 5.8 mph - N/A   Partly Cloudy
10:56 PM 64.0 °F 55.9 °F 75% 30.14 in 10.0 mi ESE 5.8 mph - N/A   Clear
11:56 PM 62.1 °F 55.9 °F 80% 30.12 in 10.0 mi ESE 4.6 mph - N/A   Clear